Regional Weather Roundup
Issued by NWS

Home | Current Version | Previous Version | Graphics & Text | Print | Product List | Glossary On
Versions: 1 2 3 4 5 6 7 8 9 10 11 12 13 14 15 16 17 18 19 20 21 22 23 24 25 26 27 28 29 30 31 32 33 34 35 36 37 38 39 40 41 42 43 44 45 46 47 48 49 50
000
ASUS43 KMPX 190601
RWRMN
WEATHER ROUNDUP FOR MINNESOTA
NATIONAL WEATHER SERVICE TWIN CITIES/CHANHASSEN MN
100 AM CDT SUN APR 19 2015


NOTE: "FAIR" INDICATES FEW OR NO CLOUDS BELOW 12,000 FEET WITH NO
SIGNIFICANT WEATHER AND/OR OBSTRUCTIONS TO VISIBILITY. N/A MEANS
CURRENT SKY AND/OR WEATHER CONDITIONS ARE NOT AVAILABLE.

MNZ060>063-068>070-190700-
   Twin Cities Metro

CITY           SKY/WX    TMP DP  RH WIND       PRES   REMARKS
TWIN CITIES    LGT RAIN  51  45  79 E15       29.84F
6HR MIN TEMP:  51; 6HR MAX TEMP:  69; 6HR PCP:  0.07;

ST PAUL        LGT RAIN  51  43  74 E12       29.87F
CRYSTAL        LGT RAIN  52  45  77 E13       29.83F
BLAINE         LGT RAIN  52  46  82 E13G20    29.85F
LAKEVILLE      MOCLDY    48  45  87 E13       29.84F
EDEN PRAIRIE   CLOUDY    52  45  77 E17G24    29.81F
6HR MIN TEMP:  52; 6HR MAX TEMP:  69; 6HR PCP:  0.08;

SOUTH ST PAUL  MOCLDY    51  43  73 E8        29.86F
LAKE ELMO      LGT RAIN  48  45  87 E9        29.88F
$$
MNZ001>005-007-008-013>017-022>024-027-028-190700-
   Northwest Minnesota

CITY           SKY/WX    TMP DP  RH WIND       PRES   REMARKS
BEMIDJI        FAIR      47  31  53 SE9       29.87F
HALLOCK        CLOUDY    55  30  38 S16       29.79F
ROSEAU         FAIR      54  32  43 SE12      29.82F
WARROAD        FAIR      52  32  46 SE12      29.84F
THIEF RVR FALL CLOUDY    54  34  47 SE9       29.82F
CROOKSTON      CLOUDY    57  34  41 S3        29.81S
FOSSTON        FAIR      54  30  40 SE14G21   29.83S
DETROIT LAKES  DRIZZLE   50  43  76 SE16      29.85S
MOORHEAD       DRIZZLE   55  46  71 S16       29.81F
PARK RAPIDS    LGT RAIN  45  39  79 SE6       29.87F
MAHNOMEN       CLOUDY    55  33  44 SE13G20   29.83S
$$
MNZ006-009>011-018-025>026-190700-
   North Central Minnesota

CITY           SKY/WX    TMP DP  RH WIND       PRES   REMARKS
BAUDETTE       FAIR      49  28  44 SE10      29.87F
FLAG ISLAND    FAIR      46  23  39 SE6       29.84F
INTL FALLS     FAIR      45  24  43 E7        29.91F
6HR MIN TEMP:  45; 6HR MAX TEMP:  58;

WASKISH        FAIR      48  30  49 SE10      29.87F
BIG FORK       FAIR      45  27  49 E7        29.91F
LONGVILLE      RAIN      43  36  75 CALM      29.90S
GRAND RAPIDS   CLOUDY    43  23  45 E7        29.91F
ORR            FAIR      43  18  36 CALM      29.91F
COOK           FAIR      41  21  45 E3        29.94F
WALKER         CLOUDY    47  32  55 SE8       29.88F
$$
MNZ012-019>021-037-190700-
   Northeast Minnesota

CITY           SKY/WX    TMP DP  RH WIND       PRES   REMARKS
DULUTH         CLOUDY    41  27  57 E14       29.95F
6HR MIN TEMP:  40; 6HR MAX TEMP:  44;

ELY            FAIR      43  19  39 SE9       29.96F
HIBBING        MOCLDY    41  22  46 SE3       29.93F
EVELETH        FAIR      41  23  48 E3        29.95F
DULUTH HARBOR  CLOUDY    39  36  87 E16       29.99F
TWO HARBORS    FAIR      45  30  57 NE7       29.97F
SILVER BAY     FAIR      41  27  56 NE8       29.99F
GRAND MARAIS     N/A     41  26  55 NE17G23   30.08S
G MARAIS ARPRT FAIR      37  18  44 E12G22    30.05F
$$
MNZ029>031-032-039>041-046>048-054>057-064-190700-
   West Central Minnesota

CITY           SKY/WX    TMP DP  RH WIND       PRES   REMARKS
FERGUS FALLS   RAIN      50  46  87 E7        29.83F
WHEATON        DRIZZLE   48  46  93 NE7       29.79F
MORRIS         RAIN      52  48  87 E17       29.75F
ALEXANDRIA     LGT RAIN  48  44  86 E16G24    29.81F FOG
ELBOW LAKE     RAIN      49  47  93 E13       29.79F
WADENA         MIX PCPN  43  43 100 E8        29.85F
GLENWOOD       DRIZZLE   46  45  93 E16       29.80F
APPLETON       DRIZZLE   54  50  87 CALM      29.75F
BENSON         HVY RAIN  54  50  87 S14       29.76F
ORTONVILLE     DRIZZLE   52  48  87 NE5       29.76F
MADISON        RAIN      52  50  93 CALM      29.75F
WILLMAR        DRIZZLE   55  55 100 SE16      29.80S
$$
MNZ033>034-036-042>043-049>051-058-059-190700-
   Central Minnesota

CITY           SKY/WX    TMP DP  RH WIND       PRES   REMARKS
ST CLOUD       LGT RAIN  50  44  80 E10       29.83F
6HR MIN TEMP:  50; 6HR MAX TEMP:  67; 6HR PCP:  0.02;

SAUK CENTRE    LGT RAIN  46  44  91 E12       29.81F
PAYNESVILLE    LGT RAIN  49  47  95 NE7       29.81F
AITKIN         MIX PCPN  41  36  81 CALM      29.90F
PINE RIVER     RAIN      39  36  87 E7        29.93F
BRAINERD       RAIN      41  38  89 E7        29.88F
STAPLES        RAIN      43  41  93 E6        29.86F
LONG PRAIRIE   LGT RAIN  45  41  87 NE12      29.83F
LITTLE FALLS   MOCLDY    45  39  81 E12G17    29.84F
LITCHFIELD     RAIN      55  54  94 SE15      29.81F
BUFFALO        DRIZZLE   52  46  81 E13       29.83F
MAPLE LAKE     DRIZZLE   53  49  86 E10       29.83F
$$
MNZ037-044-045-052-053-190700-
   East Central Minnesota

CITY           SKY/WX    TMP DP  RH WIND       PRES   REMARKS
PRINCETON      LGT RAIN  50  45  81 E9        29.86F
MORA           RAIN      41  36  81 E6        29.92F
CAMBRIDGE      RAIN      50  41  71 E10       29.85F
RUSH CITY      LGT RAIN  47  42  83 SE7       29.91F
MOOSE LAKE     LGT RAIN  37  32  81 CALM      29.93S
HINCKLEY       RAIN      43  37  81 CALM      29.93S
CLOQUET        CLOUDY    39  28  65 E7        29.94F
MCGREGOR       CLOUDY    37  34  87 E7        29.92F
$$
MNZ071>073-080-081-089-090-097-098-190700-
   Southwest Minnesota

CITY           SKY/WX    TMP DP  RH WIND       PRES   REMARKS
MONTEVIDEO     DRIZZLE   55  55 100 S12       29.76F
GRANITE FALLS  CLOUDY    56  55  97 SE15      29.78F
CANBY          CLOUDY    55  54  96 S6        29.76F FOG
MARSHALL       CLOUDY    55  50  82 S10       29.76F
REDWOOD FALLS  LGT RAIN  56  53  90 SE15      29.78F
OLIVIA         LGT RAIN  52  50  93 SE14G20   29.78F
PIPESTONE      DRIZZLE   55  54  94 S9        29.76F
WINDOM         CLOUDY    57  55  94 SE9       29.79F
WORTHINGTON    CLOUDY    54  52  94 S10       29.79F
JACKSON        LGT RAIN  55  54  94 SE8       29.80F
TRACY          DRIZZLE   56  55  95 S12       29.77F
SLAYTON        CLOUDY    53  53 100 S10       29.78F FOG
$$
MNZ065>067-074>077-082>085-091>093-190700-
   South Central Minnesota

CITY           SKY/WX    TMP DP  RH WIND       PRES   REMARKS
MANKATO        CLOUDY    55  45  67 SE20      29.80S
NEW ULM        DRIZZLE   54  52  94 SE8       29.80S
ST JAMES       DRIZZLE   55  52  88 SE7       29.81S
FAIRMONT       CLOUDY    55  45  67 SE10      29.80S
GLENCOE        DRIZZLE   55  53  92 E10       29.80F
FARIBAULT      MOCLDY    52  46  82 E9G16     29.82F
OWATONNA       FAIR      55  46  71 E15       29.82F
ALBERT LEA     MOCLDY    57  52  82 SE14      29.82S
$$
MNZ078>079-086>088-094>096-190700-
   Southeast Minnesota

CITY           SKY/WX    TMP DP  RH WIND       PRES   REMARKS
ROCHESTER      CLOUDY    53  42  66 E17G26    29.85F
6HR MIN TEMP:  53; 6HR MAX TEMP:  66; 6HR PCP:  0.05;

RED WING       CLOUDY    52  39  62 E9G17     29.87F
STANTON        CLOUDY    54  42  63 E14G21    29.81F
DODGE CENTER   CLOUDY    54  46  76 E13       29.85S
WINONA         RAIN      54  41  62 CALM      29.95S
AUSTIN         FAIR      54  50  87 SE15      29.83S
PRESTON        CLOUDY    52  44  75 SE9G25    29.89F
$$
ABBREVIATIONS USED IN REMARKS
   TC - TEMPERATURES IN CELSIUS
  WCI - WIND CHILL INDEX
   HX - HEAT INDEX
  VSB - VISIBILITY
$$


USA.gov is the U.S. government's official web portal to all federal, state and local government web resources and services.